This demonstration page uses our WeatherBlox Daily Observations layout. Learn more.

Left ArrowRight Arrow

Hourly Observations for June 26, 2017

Temp ( °F °C ) Dew Point ( °F °C ) Humidity (%) Winds ( mph kmh ) Pressure ( in mb ) Visibility ( mi km ) Precip ( " mm )
12:53 am 00:53 Clear 68 20 63 17.2 84 84 Calm 30.14 1021 10 16 0.00 0.00
1:53 am 01:53 Clear 66 18.9 63 17.2 90 90 N 3 6 30.12 1020 10 16 0.00 0.00
2:53 am 02:53 Clear 65 18.3 63 17.2 93 93 Calm 30.12 1020 10 16 0.00 0.00
3:53 am 03:53 Clear 65 18.3 62 16.7 90 90 Calm 30.11 1020 10 16 0.00 0.00
4:53 am 04:53 Clear 62 16.7 61 16.1 96 96 Calm 30.12 1020 10 16 0.00 0.00
5:53 am 05:53 Clear 61 16.1 60 15.6 97 97 Calm 30.13 1020 10 16 0.00 0.00
6:53 am 06:53 Sunny 61 16.1 60 15.6 97 97 Calm 30.14 1021 10 16 0.00 0.00
7:53 am 07:53 Sunny 65 18.3 60 15.6 84 84 Calm 30.15 1021 10 16 0.00 0.00
8:53 am 08:53 Sunny 69 20.6 59 15 70 70 NE 3 6 30.16 1022 10 16 0.00 0.00
9:53 am 09:53 Sunny 74 23.3 60 15.6 62 62 NNE 5 7 30.16 1021 10 16 0.00 0.00
10:53 am 10:53 Sunny 79 26.1 58 14.4 49 49 E 5 7 30.16 1021 10 16 0.00 0.00
11:53 am 11:53 Sunny 80 26.7 58 14.4 47 47 E 6 9 30.15 1021 10 16 0.00 0.00
12:53 pm 12:53 Sunny 83 28.3 59 15 44 44 VRB 6 9 30.14 1021 10 16 0.00 0.00
1:53 pm 13:53 Sunny 83 28.3 51 10.6 33 33 NNE 8 13 30.12 1020 10 16 0.00 0.00
2:53 pm 14:53 Sunny 84 28.9 48 8.9 29 29 N 8 13 30.10 1019 10 16 0.00 0.00
3:53 pm 15:53 Sunny 85 29.4 51 10.6 31 31 VRB 5 7 30.08 1019 10 16 0.00 0.00
4:53 pm 16:53 Sunny 84 28.9 57 13.9 40 40 N 8 13 30.06 1018 10 16 0.00 0.00
5:53 pm 17:53 Sunny 83 28.3 57 13.9 41 41 NW 9 15 30.04 1017 10 16 0.00 0.00
6:53 pm 18:53 Sunny 82 27.8 57 13.9 42 42 NNW 8 13 30.03 1017 10 16 0.00 0.00
7:53 pm 19:53 Sunny 81 27.2 58 14.4 45 45 NNW 6 9 30.03 1017 10 16 0.00 0.00
8:53 pm 20:53 Clear 77 25 59 15 54 54 NNW 3 6 30.04 1017 10 16 0.00 0.00
9:53 pm 21:53 Clear 71 21.7 63 17.2 76 76 Calm 30.05 1018 10 16 0.00 0.00
10:53 pm 22:53 Clear 68 20 63 17.2 84 84 Calm 30.06 1018 10 16 0.00 0.00
11:53 pm 23:53 Mostly Clear 67 19.4 63 17.2 87 87 Calm 30.07 1018 10 16 0.00 0.00

Powered by AerisWeather